AFR428 LFPG-MROC

Flight info

Callsign AFR428
Flight time N/A
Altitude 34000
Route ELCOB UT300 SENLO UN502 JSY DCT LARLA DCT RATKA/M085F340 DCT ODANU DCT ATSUR DCT SOMAX/M085F360 DCT 50N020W 50N030W 50N040W 48N050W DCT NICSO DCT JEBBY/M085F380 DCT 40N060W DCT QINCY DCT BALTN DCT RUDLI DCT CANEE/N0488F380 M331 PAARR/N0484F400 M331 GHANN UL347 VIKRO/N0487F390 DCT DAGUD/N0485F400 DCT SPP UP798 COLOR BARRA3C
Aircraft A359/H-SDE2E3GHIJ3J4J5LM1ORWXY/LB1D1

Departure

Time N/A
Airport Charles de Gaulle International Airport (LFPG)

Arrival

Time 2026-04-27 10:25
Airport Juan Santamaría International Airport (MROC)
Time Latitude Longitude Altitude Speed Heading
2026-04-27 08:49 18.14685 -76.94973 39980 ft 458 kts 219°
2026-04-27 08:49 18.12111 -76.96960 39974 ft 458 kts 219°
2026-04-27 08:49 18.07145 -77.00792 39965 ft 458 kts 219°
2026-04-27 08:50 18.02012 -77.04749 39967 ft 458 kts 219°
2026-04-27 08:50 17.96924 -77.08669 39964 ft 457 kts 219°
2026-04-27 08:51 17.91790 -77.12621 39967 ft 456 kts 219°
2026-04-27 08:51 17.86676 -77.16555 39966 ft 456 kts 219°
2026-04-27 08:52 17.81559 -77.20489 39969 ft 456 kts 219°
2026-04-27 08:52 17.76437 -77.24424 39972 ft 456 kts 219°
2026-04-27 08:53 17.71303 -77.28366 39960 ft 459 kts 219°
2026-04-27 08:53 17.66140 -77.32325 39958 ft 459 kts 219°
2026-04-27 08:54 17.61022 -77.36248 39950 ft 459 kts 219°
2026-04-27 08:54 17.55858 -77.40203 39954 ft 459 kts 219°
2026-04-27 08:55 17.50702 -77.44149 39948 ft 459 kts 219°
2026-04-27 08:55 17.45544 -77.48094 39952 ft 459 kts 219°
2026-04-27 08:56 17.40383 -77.52039 39954 ft 459 kts 219°
2026-04-27 08:56 17.35250 -77.55960 39941 ft 459 kts 218°
2026-04-27 08:57 17.27516 -77.61861 39952 ft 458 kts 218°
2026-04-27 08:58 17.22354 -77.65797 39953 ft 459 kts 218°
2026-04-27 08:58 17.17185 -77.69735 39950 ft 460 kts 218°
2026-04-27 08:59 17.12011 -77.73674 39950 ft 460 kts 218°
2026-04-27 08:59 17.06838 -77.77609 39947 ft 460 kts 218°
2026-04-27 09:00 17.01840 -77.81409 39940 ft 459 kts 218°
2026-04-27 09:00 16.96671 -77.85336 39949 ft 458 kts 218°
2026-04-27 09:01 16.91513 -77.89252 39948 ft 458 kts 218°
2026-04-27 09:01 16.86362 -77.93160 39948 ft 458 kts 218°
2026-04-27 09:02 16.81205 -77.97070 39945 ft 458 kts 218°
2026-04-27 09:02 16.76027 -78.00994 39944 ft 460 kts 218°
2026-04-27 09:03 16.70871 -78.04897 39943 ft 460 kts 218°
2026-04-27 09:03 16.65688 -78.08818 39943 ft 460 kts 218°
2026-04-27 09:04 16.60511 -78.12732 39944 ft 459 kts 218°
2026-04-27 09:04 16.55331 -78.16646 39944 ft 459 kts 218°
2026-04-27 09:05 16.50187 -78.20531 39946 ft 459 kts 218°
2026-04-27 09:05 16.45005 -78.24441 39946 ft 459 kts 218°
2026-04-27 09:06 16.39835 -78.28339 39939 ft 459 kts 218°
2026-04-27 09:06 16.34642 -78.32253 39942 ft 459 kts 218°
2026-04-27 09:07 16.29466 -78.36150 39934 ft 459 kts 218°
2026-04-27 09:07 16.25157 -78.39393 39934 ft 459 kts 218°
2026-04-27 09:08 16.19140 -78.43918 39945 ft 459 kts 218°
2026-04-27 09:08 16.14802 -78.47178 39929 ft 459 kts 218°
2026-04-27 09:09 16.09650 -78.51048 39945 ft 459 kts 218°
2026-04-27 09:09 16.04476 -78.54932 39943 ft 459 kts 218°
2026-04-27 09:10 15.99294 -78.58820 39942 ft 459 kts 218°
2026-04-27 09:10 15.94103 -78.62711 39940 ft 459 kts 218°
2026-04-27 09:11 15.88955 -78.66568 39938 ft 459 kts 218°
2026-04-27 09:11 15.83765 -78.70453 39936 ft 460 kts 218°
2026-04-27 09:12 15.78570 -78.74340 39938 ft 461 kts 218°
2026-04-27 09:12 15.73364 -78.78233 39934 ft 461 kts 218°
2026-04-27 09:13 15.68157 -78.82125 39939 ft 461 kts 217°
2026-04-27 09:13 15.62961 -78.86005 39936 ft 461 kts 217°
2026-04-27 09:14 15.57734 -78.89905 39938 ft 461 kts 217°
2026-04-27 09:14 15.52562 -78.93762 39932 ft 461 kts 217°
2026-04-27 09:15 15.47358 -78.97640 39935 ft 461 kts 217°
2026-04-27 09:15 15.42133 -79.01532 39938 ft 461 kts 217°
2026-04-27 09:16 15.36914 -79.05417 39931 ft 461 kts 217°
2026-04-27 09:16 15.31727 -79.09276 39938 ft 462 kts 217°
2026-04-27 09:17 15.26502 -79.13161 39933 ft 463 kts 217°
2026-04-27 09:17 15.21259 -79.17057 39935 ft 463 kts 217°
2026-04-27 09:18 15.16029 -79.20940 39933 ft 463 kts 217°
2026-04-27 09:18 15.10787 -79.24830 39934 ft 463 kts 217°
2026-04-27 09:19 15.05584 -79.28688 39934 ft 463 kts 217°
2026-04-27 09:19 15.00392 -79.32634 39928 ft 462 kts 221°
2026-04-27 09:20 14.95664 -79.37123 39931 ft 461 kts 225°
2026-04-27 09:20 14.91029 -79.41738 39930 ft 461 kts 225°
2026-04-27 09:21 14.86443 -79.46337 39931 ft 462 kts 225°
2026-04-27 09:21 14.81808 -79.50969 39926 ft 463 kts 225°
2026-04-27 09:22 14.77173 -79.55588 39930 ft 463 kts 225°
2026-04-27 09:22 14.72527 -79.60210 39930 ft 463 kts 225°
2026-04-27 09:23 14.67884 -79.64828 39926 ft 463 kts 225°
2026-04-27 09:23 14.63274 -79.69410 39930 ft 463 kts 225°
2026-04-27 09:24 14.58621 -79.74032 39930 ft 463 kts 225°
2026-04-27 09:24 14.53978 -79.78641 39930 ft 463 kts 225°
2026-04-27 09:25 14.49336 -79.83247 39931 ft 464 kts 225°
2026-04-27 09:25 14.44671 -79.87872 39930 ft 465 kts 225°
2026-04-27 09:26 14.40025 -79.92476 39930 ft 465 kts 225°
2026-04-27 09:26 14.35360 -79.97096 39930 ft 465 kts 225°
2026-04-27 09:27 14.30695 -80.01713 39931 ft 465 kts 225°
2026-04-27 09:27 14.26019 -80.06337 39931 ft 465 kts 225°
2026-04-27 09:28 14.21355 -80.10949 39930 ft 465 kts 225°
2026-04-27 09:28 14.16680 -80.15566 39931 ft 465 kts 225°
2026-04-27 09:29 14.12030 -80.20158 39930 ft 466 kts 225°
2026-04-27 09:29 14.07343 -80.24783 39930 ft 466 kts 225°
2026-04-27 09:30 14.02650 -80.29411 39933 ft 466 kts 225°
2026-04-27 09:30 13.97968 -80.34026 39931 ft 467 kts 225°
2026-04-27 09:31 13.93266 -80.38658 39929 ft 467 kts 225°
2026-04-27 09:31 13.88577 -80.43273 39929 ft 467 kts 225°
2026-04-27 09:32 13.83895 -80.47879 39930 ft 467 kts 225°
2026-04-27 09:32 13.79191 -80.52504 39931 ft 467 kts 225°
2026-04-27 09:33 13.74487 -80.57126 39926 ft 468 kts 225°
2026-04-27 09:33 13.69766 -80.61764 39927 ft 468 kts 225°
2026-04-27 09:34 13.65052 -80.66390 39928 ft 469 kts 225°
2026-04-27 09:34 13.60355 -80.70997 39926 ft 469 kts 225°
2026-04-27 09:35 13.55626 -80.75634 39928 ft 469 kts 225°
2026-04-27 09:35 13.50895 -80.80269 39928 ft 469 kts 225°
2026-04-27 09:36 13.46208 -80.84859 39926 ft 469 kts 225°
2026-04-27 09:36 13.41471 -80.89495 39928 ft 469 kts 225°
2026-04-27 09:37 13.36747 -80.94116 39927 ft 469 kts 225°
2026-04-27 09:37 13.32004 -80.98753 39921 ft 470 kts 225°
2026-04-27 09:38 13.27259 -81.03389 39923 ft 471 kts 225°
2026-04-27 09:38 13.22544 -81.07993 39922 ft 471 kts 225°
2026-04-27 09:39 13.17784 -81.12637 39920 ft 471 kts 225°
2026-04-27 09:39 13.13022 -81.17282 39921 ft 471 kts 225°
2026-04-27 09:40 13.08260 -81.21924 39919 ft 471 kts 225°
2026-04-27 09:40 13.03539 -81.26524 39920 ft 471 kts 225°
2026-04-27 09:41 12.98779 -81.31159 39918 ft 471 kts 225°
2026-04-27 09:41 12.94022 -81.35789 39922 ft 472 kts 224°
2026-04-27 09:42 12.89253 -81.40427 39920 ft 472 kts 224°
2026-04-27 09:42 12.84486 -81.45060 39923 ft 472 kts 224°
2026-04-27 09:43 12.79722 -81.49689 39923 ft 472 kts 224°
2026-04-27 09:43 12.74991 -81.54283 39917 ft 471 kts 224°
2026-04-27 09:44 12.70219 -81.58915 39920 ft 471 kts 224°
2026-04-27 09:44 12.65451 -81.63540 39912 ft 472 kts 224°
2026-04-27 09:45 12.60692 -81.68154 39910 ft 472 kts 224°
2026-04-27 09:45 12.55970 -81.72772 39911 ft 471 kts 226°
2026-04-27 09:46 12.51384 -81.77560 39912 ft 471 kts 227°
2026-04-27 09:46 12.46822 -81.82390 39913 ft 471 kts 226°
2026-04-27 09:47 12.42239 -81.87196 39917 ft 471 kts 226°
2026-04-27 09:47 12.37666 -81.91958 39915 ft 471 kts 226°
2026-04-27 09:48 12.33063 -81.96740 39909 ft 471 kts 226°
2026-04-27 09:48 12.28465 -82.01517 39900 ft 471 kts 226°
2026-04-27 09:49 12.23864 -82.06294 39910 ft 471 kts 226°
2026-04-27 09:49 12.19259 -82.11074 39912 ft 472 kts 226°
2026-04-27 09:50 12.14646 -82.15860 39910 ft 472 kts 226°
2026-04-27 09:50 12.10077 -82.20599 39906 ft 472 kts 226°
2026-04-27 09:51 12.05466 -82.25377 39909 ft 472 kts 226°
2026-04-27 09:51 12.00858 -82.30151 39906 ft 472 kts 226°
2026-04-27 09:52 11.96239 -82.34933 39911 ft 472 kts 226°
2026-04-27 09:52 11.91622 -82.39711 39909 ft 472 kts 226°
2026-04-27 09:53 11.87041 -82.44449 39903 ft 472 kts 226°
2026-04-27 09:53 11.82426 -82.49220 39906 ft 473 kts 226°
2026-04-27 09:54 11.77800 -82.53999 39908 ft 473 kts 226°
2026-04-27 09:54 11.73958 -82.57967 39909 ft 472 kts 226°
2026-04-27 09:55 11.69338 -82.62737 39910 ft 472 kts 226°
2026-04-27 09:55 11.62398 -82.69896 39904 ft 473 kts 226°
2026-04-27 09:56 11.57771 -82.74656 39898 ft 472 kts 225°
2026-04-27 09:56 11.53136 -82.79363 39903 ft 471 kts 225°
2026-04-27 09:57 11.48488 -82.84088 39904 ft 471 kts 225°
2026-04-27 09:57 11.43842 -82.88813 39907 ft 471 kts 225°
2026-04-27 09:58 11.39235 -82.93498 39905 ft 471 kts 225°
2026-04-27 09:58 11.34572 -82.98238 39902 ft 471 kts 225°
2026-04-27 09:59 11.29930 -83.02954 39902 ft 471 kts 225°
2026-04-27 09:59 11.25273 -83.07683 39904 ft 471 kts 225°
2026-04-27 10:00 11.20633 -83.12393 39898 ft 471 kts 225°
2026-04-27 10:00 11.15987 -83.17107 39902 ft 470 kts 225°
2026-04-27 10:01 11.11374 -83.21784 39901 ft 471 kts 225°
2026-04-27 10:01 11.06725 -83.26497 39900 ft 471 kts 225°
2026-04-27 10:02 11.02065 -83.31218 39899 ft 471 kts 225°
2026-04-27 10:02 10.97413 -83.35929 39899 ft 471 kts 225°
2026-04-27 10:03 10.92762 -83.40637 39899 ft 471 kts 225°
2026-04-27 10:03 10.88277 -83.45173 39735 ft 466 kts 225°
2026-04-27 10:04 10.85978 -83.47499 39034 ft 468 kts 225°
2026-04-27 10:04 10.83661 -83.49842 38204 ft 471 kts 225°
2026-04-27 10:04 10.81326 -83.52202 37290 ft 475 kts 225°
2026-04-27 10:04 10.78966 -83.54588 36465 ft 478 kts 225°
2026-04-27 10:05 10.76605 -83.56988 35767 ft 479 kts 226°
2026-04-27 10:05 10.74531 -83.59633 35048 ft 480 kts 237°
2026-04-27 10:05 10.72791 -83.62544 34320 ft 482 kts 239°
2026-04-27 10:05 10.71093 -83.65503 33458 ft 486 kts 239°
2026-04-27 10:06 10.69382 -83.68481 32602 ft 489 kts 239°
2026-04-27 10:06 10.67658 -83.71472 31751 ft 491 kts 239°
2026-04-27 10:06 10.65943 -83.74441 30898 ft 493 kts 239°
2026-04-27 10:06 10.64197 -83.77460 30004 ft 496 kts 239°
2026-04-27 10:07 10.62440 -83.80496 29037 ft 498 kts 239°
2026-04-27 10:07 10.60690 -83.83517 28306 ft 493 kts 239°
2026-04-27 10:07 10.58964 -83.86498 27656 ft 488 kts 239°
2026-04-27 10:07 10.57239 -83.89474 26991 ft 484 kts 239°
2026-04-27 10:08 10.55543 -83.92399 26345 ft 480 kts 239°
2026-04-27 10:08 10.53847 -83.95324 25702 ft 477 kts 239°
2026-04-27 10:08 10.52169 -83.98216 25039 ft 474 kts 239°
2026-04-27 10:08 10.50495 -84.01102 24408 ft 472 kts 239°
2026-04-27 10:09 10.48832 -84.03967 23761 ft 470 kts 239°
2026-04-27 10:09 10.47174 -84.06824 23066 ft 468 kts 239°
2026-04-27 10:09 10.45526 -84.09660 22391 ft 464 kts 239°
2026-04-27 10:09 10.43916 -84.12433 21765 ft 460 kts 239°
2026-04-27 10:10 10.42275 -84.15257 21112 ft 455 kts 239°
2026-04-27 10:10 10.40693 -84.17979 20494 ft 451 kts 239°
2026-04-27 10:10 10.39103 -84.20714 19853 ft 448 kts 239°
2026-04-27 10:10 10.37524 -84.23431 19214 ft 445 kts 239°
2026-04-27 10:11 10.35950 -84.26136 18552 ft 444 kts 239°
2026-04-27 10:11 10.34384 -84.28827 17856 ft 442 kts 239°
2026-04-27 10:11 10.32829 -84.31501 17172 ft 438 kts 239°
2026-04-27 10:11 10.31284 -84.34155 16504 ft 434 kts 239°
2026-04-27 10:12 10.29753 -84.36784 15841 ft 430 kts 239°
2026-04-27 10:12 10.28237 -84.39388 15188 ft 426 kts 239°
2026-04-27 10:12 10.26734 -84.41969 14522 ft 423 kts 239°
2026-04-27 10:12 10.25242 -84.44531 13873 ft 420 kts 239°
2026-04-27 10:13 10.23773 -84.47052 13205 ft 417 kts 239°
2026-04-27 10:13 10.22320 -84.49545 12926 ft 402 kts 239°
2026-04-27 10:13 10.20922 -84.51941 12718 ft 387 kts 239°
2026-04-27 10:13 10.19577 -84.54250 12572 ft 371 kts 239°
2026-04-27 10:14 10.18285 -84.56464 12456 ft 356 kts 240°
2026-04-27 10:14 10.17033 -84.58585 12311 ft 342 kts 238°
2026-04-27 10:14 10.15500 -84.60290 12171 ft 316 kts 214°
2026-04-27 10:14 10.13555 -84.61122 11960 ft 306 kts 189°
2026-04-27 10:15 10.11466 -84.61047 11662 ft 300 kts 164°
2026-04-27 10:15 10.09634 -84.60109 11335 ft 294 kts 139°
2026-04-27 10:15 10.08123 -84.58756 11151 ft 284 kts 141°
2026-04-27 10:15 10.06520 -84.57648 11031 ft 273 kts 147°
2026-04-27 10:16 10.04928 -84.56665 10899 ft 262 kts 147°
2026-04-27 10:16 10.03388 -84.55731 10765 ft 253 kts 148°
2026-04-27 10:16 10.01877 -84.54817 10513 ft 252 kts 147°
2026-04-27 10:16 10.00379 -84.53907 10229 ft 251 kts 147°
2026-04-27 10:17 9.98847 -84.53070 9962 ft 249 kts 157°
2026-04-27 10:17 9.97163 -84.52680 9673 ft 248 kts 168°
2026-04-27 10:17 9.95462 -84.52408 9374 ft 253 kts 173°
2026-04-27 10:17 9.93719 -84.52238 9108 ft 249 kts 172°
2026-04-27 10:18 9.92026 -84.51979 8866 ft 243 kts 167°
2026-04-27 10:18 9.90474 -84.51399 8597 ft 235 kts 144°
2026-04-27 10:18 9.89444 -84.50192 8337 ft 223 kts 113°
2026-04-27 10:18 9.89164 -84.48686 8093 ft 217 kts 85°
2026-04-27 10:19 9.89517 -84.47232 7905 ft 209 kts 69°
2026-04-27 10:19 9.90045 -84.45846 7813 ft 209 kts 68°
2026-04-27 10:19 9.90549 -84.44527 7646 ft 192 kts 68°
2026-04-27 10:19 9.91033 -84.43316 7427 ft 179 kts 67°
2026-04-27 10:20 9.91469 -84.42161 7104 ft 172 kts 68°
2026-04-27 10:20 9.91887 -84.41033 6713 ft 170 kts 68°
2026-04-27 10:20 9.92287 -84.39947 6427 ft 162 kts 68°
2026-04-27 10:20 9.92675 -84.38907 6201 ft 153 kts 68°
2026-04-27 10:21 9.93045 -84.37914 6026 ft 149 kts 68°
2026-04-27 10:21 9.93419 -84.36926 5919 ft 150 kts 62°
2026-04-27 10:21 9.93789 -84.35932 5749 ft 151 kts 63°
2026-04-27 10:21 9.94240 -84.34935 5574 ft 157 kts 57°
2026-04-27 10:22 9.94793 -84.33992 5355 ft 156 kts 62°
2026-04-27 10:22 9.95117 -84.32966 5205 ft 148 kts 78°
2026-04-27 10:22 9.95266 -84.31920 5030 ft 154 kts 75°
2026-04-27 10:22 9.95643 -84.30899 4783 ft 154 kts 62°
2026-04-27 10:23 9.96064 -84.29913 4621 ft 149 kts 69°
2026-04-27 10:23 9.96388 -84.28901 4504 ft 155 kts 71°
2026-04-27 10:23 9.96780 -84.27847 4239 ft 162 kts 68°
2026-04-27 10:23 9.97195 -84.26796 4002 ft 161 kts 68°
2026-04-27 10:24 9.97576 -84.25763 3759 ft 154 kts 64°
2026-04-27 10:24 9.97943 -84.24754 3539 ft 153 kts 69°
2026-04-27 10:24 9.98318 -84.23753 3331 ft 152 kts 68°
2026-04-27 10:24 9.98686 -84.22757 3109 ft 150 kts 69°
2026-04-27 10:25 9.99056 -84.21775 2966 ft 144 kts 69°
2026-04-27 10:25 9.99377 -84.20947 2994 ft 105 kts 70°
2026-04-27 10:25 9.99573 -84.20410 3025 ft 57 kts 69°
2026-04-27 10:25 9.99652 -84.20196 3029 ft 9 kts 68°
2026-04-27 10:26 9.99685 -84.20149 3033 ft 7 kts 37°
2026-04-27 10:26 9.99724 -84.20146 3033 ft 5 kts 340°
2026-04-27 10:26 9.99725 -84.20147 3033 ft 0 kts 336°
2026-04-27 10:27 9.99727 -84.20148 3033 ft 0 kts 336°
2026-04-27 10:27 9.99735 -84.20152 3032 ft 7 kts 335°
2026-04-27 10:28 9.99743 -84.20193 3032 ft 7 kts 252°
2026-04-27 10:28 9.99754 -84.20225 3032 ft 2 kts 340°
2026-04-27 10:28 9.99767 -84.20227 3031 ft 1 kts 346°
2026-04-27 10:28 9.99774 -84.20229 3029 ft 0 kts 346°
2026-04-27 10:29 9.99776 -84.20230 3030 ft 0 kts 342°
2026-04-27 10:29 9.99778 -84.20230 3030 ft 0 kts 345°
2026-04-27 10:30 9.99780 -84.20231 3030 ft 0 kts 343°
2026-04-27 10:30 9.99781 -84.20231 3030 ft 0 kts 343°
2026-04-27 10:30 9.99782 -84.20231 3030 ft 0 kts 343°
2026-04-27 10:31 9.99790 -84.20234 3031 ft 0 kts 344°